contact:dominique.lefevre@mio.osupytheas.fr, maurice.libes@osupytheas.fr, didier.mallarino@osupytheas.fr
Project:EMSO http://www.emso-fr.org/EMSO-France
Depth: 2436.0 m
Title:EMSO Ligure Ouest : Data MII capteur AQUADOPP
Date,Latitude,Longitude,X_East,Y_North,Z_Up,Amplitude_X,Amplitude_Y,Amplitude_Z,Batterie,SoundSpeed,Heading,Pitch,Roll,Pressure,TIS,Speed,Direction
, degrees North, degrees East, m.s-1, m.s-1,m.s-1, 1, 1, 1, Volt, m.s-1, degree, degree, degree, dbar, degree_C, m.s-1, degree
2021-11-02T00:04:03,42.805,6.029,-0.008,0.02,0.027,101.0,100.0,101.0,13.4,1505.2,331.6,-0.8,1.9,2470.597,13.29,0.021,338.2
2021-11-02T00:07:03,42.805,6.029,-0.005,0.01,0.018,99.0,101.0,101.0,13.4,1505.2,327.3,-0.7,1.8,2470.611,13.29,0.011,333.4
2021-11-02T00:10:03,42.805,6.029,0.0,0.003,0.013,101.0,101.0,101.0,13.4,1505.2,330.8,-0.8,1.8,2470.604,13.29,0.003,0.0
2021-11-02T00:13:03,42.805,6.029,-0.013,0.002,0.02,101.0,100.0,101.0,13.4,1505.2,331.3,-0.8,1.8,2470.573,13.29,0.013,278.7
2021-11-02T00:16:03,42.805,6.029,0.016,0.0,0.019,101.0,100.0,101.0,13.4,1505.2,327.8,-0.8,1.8,2470.579,13.29,0.016,90.0
2021-11-02T00:19:03,42.805,6.029,0.0,0.0,0.002,101.0,101.0,101.0,13.3,1505.2,328.7,-0.8,1.8,2470.583,13.29,0.0,0.0
2021-11-02T00:22:03,42.805,6.029,0.017,-0.02,-0.009,101.0,101.0,101.0,13.4,1505.2,325.7,-0.8,1.8,2470.552,13.29,0.026,139.6
2021-11-02T00:25:03,42.805,6.029,-0.018,0.0,-0.013,101.0,102.0,100.0,13.3,1505.2,327.1,-0.8,1.8,2470.572,13.29,0.018,270.0
2021-11-02T00:28:03,42.805,6.029,-0.007,0.009,0.016,101.0,100.0,101.0,13.3,1505.2,330.4,-0.8,1.8,2470.561,13.29,0.011,322.1
2021-11-02T00:31:03,42.805,6.029,0.002,-0.01,-0.013,101.0,102.0,100.0,13.4,1505.2,327.2,-0.7,1.8,2470.59,13.29,0.01,168.7
2021-11-02T00:34:03,42.805,6.029,-0.001,-0.008,0.02,101.0,101.0,101.0,13.4,1505.2,326.7,-0.8,1.8,2470.595,13.29,0.008,187.1
2021-11-02T00:37:03,42.805,6.029,0.0,-0.018,-0.001,101.0,102.0,102.0,13.4,1505.2,330.5,-0.8,1.8,2470.576,13.29,0.018,180.0
2021-11-02T00:40:03,42.805,6.029,-0.003,0.001,-0.004,102.0,102.0,101.0,13.3,1505.2,331.4,-0.8,1.8,2470.601,13.29,0.003,288.4
2021-11-02T00:43:03,42.805,6.029,0.004,0.008,0.009,101.0,101.0,101.0,13.4,1505.2,331.6,-0.8,1.8,2470.598,13.29,0.008,26.6
2021-11-02T00:46:03,42.805,6.029,0.008,-0.004,0.006,102.0,101.0,101.0,13.3,1505.2,326.9,-0.7,1.8,2470.548,13.29,0.008,116.6
2021-11-02T00:49:03,42.805,6.029,-0.003,-0.006,0.006,102.0,101.0,101.0,13.3,1505.2,329.5,-0.8,1.8,2470.547,13.29,0.006,206.6
2021-11-02T00:52:03,42.805,6.029,0.007,0.016,0.014,101.0,101.0,101.0,13.4,1505.2,330.0,-0.7,1.8,2470.556,13.29,0.017,23.6
2021-11-02T00:55:03,42.805,6.029,-0.001,0.008,0.024,102.0,101.0,100.0,13.4,1505.2,329.1,-0.7,1.8,2470.535,13.29,0.008,352.9
2021-11-02T00:58:03,42.805,6.029,0.008,0.007,0.017,101.0,103.0,101.0,13.4,1505.2,330.1,-0.7,1.8,2470.569,13.29,0.01,48.8
2021-11-02T01:04:03,42.805,6.029,-0.006,0.017,0.023,103.0,105.0,102.0,13.3,1505.2,325.5,-0.8,1.8,2470.617,13.28,0.018,340.6
2021-11-02T01:07:03,42.805,6.029,0.001,0.001,0.04,101.0,101.0,102.0,13.3,1505.2,327.9,-0.8,1.8,2470.625,13.28,0.001,45.0
2021-11-02T01:10:03,42.805,6.029,0.005,-0.026,-0.02,102.0,99.0,100.0,13.3,1505.2,325.1,-0.8,1.9,2470.603,13.29,0.026,169.1
2021-11-02T01:13:03,42.805,6.029,0.005,-0.007,0.026,100.0,101.0,102.0,13.4,1505.2,330.2,-0.8,1.8,2470.565,13.29,0.008,144.5
2021-11-02T01:16:03,42.805,6.029,0.002,0.008,0.007,100.0,101.0,100.0,13.3,1505.2,328.6,-0.7,1.8,2470.654,13.29,0.008,14.0
2021-11-02T01:19:03,42.805,6.029,0.01,0.001,0.005,101.0,101.0,101.0,13.3,1505.2,329.0,-0.7,1.8,2470.612,13.29,0.01,84.3
2021-11-02T01:22:03,42.805,6.029,0.01,0.016,0.015,101.0,100.0,101.0,13.4,1505.2,327.5,-0.8,1.8,2470.629,13.29,0.018,32.0
2021-11-02T01:25:03,42.805,6.029,-0.008,0.0,0.015,100.0,102.0,100.0,13.3,1505.2,326.0,-0.8,1.8,2470.653,13.29,0.008,270.0
2021-11-02T01:28:03,42.805,6.029,-0.016,-0.001,0.008,100.0,102.0,101.0,13.4,1505.2,327.3,-0.8,1.8,2470.631,13.29,0.016,266.4
2021-11-02T01:31:03,42.805,6.029,-0.019,0.012,0.017,102.0,101.0,100.0,13.4,1505.2,325.4,-0.8,1.8,2470.63,13.29,0.022,302.3
2021-11-02T01:34:03,42.805,6.029,0.02,0.011,0.015,100.0,101.0,104.0,13.3,1505.2,330.1,-0.7,1.8,2470.562,13.29,0.022,61.2
2021-11-02T01:37:03,42.805,6.029,0.012,-0.02,-0.011,100.0,100.0,101.0,13.3,1505.2,330.5,-0.8,1.9,2470.614,13.29,0.023,149.0
2021-11-02T01:40:03,42.805,6.029,-0.02,0.013,0.028,101.0,101.0,101.0,13.3,1505.2,328.0,-0.7,1.8,2470.626,13.29,0.023,303.0
2021-11-02T01:43:03,42.805,6.029,-0.018,0.011,0.007,101.0,101.0,101.0,13.3,1505.2,326.3,-0.7,1.8,2470.612,13.29,0.021,301.4
2021-11-02T01:46:03,42.805,6.029,0.026,0.009,0.031,102.0,100.0,101.0,13.4,1505.2,331.3,-0.8,1.8,2470.632,13.29,0.027,70.9
2021-11-02T01:49:03,42.805,6.029,-0.008,0.009,0.003,101.0,101.0,101.0,13.4,1505.2,325.5,-0.8,1.8,2470.601,13.29,0.012,318.4
2021-11-02T01:52:03,42.805,6.029,-0.005,0.001,0.022,101.0,101.0,101.0,13.3,1505.2,325.8,-0.8,1.8,2470.6,13.29,0.005,281.3
2021-11-02T01:55:03,42.805,6.029,0.007,-0.002,0.0,102.0,102.0,100.0,13.4,1505.2,325.7,-0.8,1.8,2470.608,13.29,0.007,105.9
2021-11-02T01:58:03,42.805,6.029,0.009,-0.009,-0.004,101.0,101.0,101.0,13.4,1505.2,328.4,-0.8,1.8,2470.625,13.29,0.012,135.0
2021-11-02T02:04:03,42.805,6.029,-0.013,0.002,-0.018,101.0,102.0,100.0,13.3,1505.2,326.5,-0.8,1.8,2470.694,13.28,0.013,278.7
2021-11-02T02:07:03,42.805,6.029,-0.004,0.019,0.009,101.0,101.0,100.0,13.4,1505.2,331.2,-0.7,1.8,2470.683,13.28,0.019,348.1
2021-11-02T02:10:03,42.805,6.029,0.018,-0.008,-0.009,102.0,101.0,103.0,13.3,1505.2,327.7,-0.8,1.8,2470.616,13.28,0.019,114.0
2021-11-02T02:13:03,42.805,6.029,0.02,-0.007,0.005,100.0,101.0,101.0,13.3,1505.2,328.6,-0.7,1.8,2470.644,13.29,0.021,109.3
2021-11-02T02:16:03,42.805,6.029,0.008,0.002,0.012,101.0,101.0,100.0,13.3,1505.2,330.0,-0.8,1.8,2470.654,13.29,0.008,76.0
2021-11-02T02:19:03,42.805,6.029,-0.011,0.014,0.033,102.0,99.0,100.0,13.4,1505.2,328.6,-0.7,1.9,2470.656,13.29,0.017,321.8
2021-11-02T02:22:03,42.805,6.029,0.013,-0.004,0.009,100.0,101.0,101.0,13.4,1505.2,326.6,-0.8,1.8,2470.623,13.29,0.013,107.1
2021-11-02T02:25:03,42.805,6.029,-0.003,0.0,-0.011,102.0,102.0,100.0,13.4,1505.2,325.9,-0.8,1.8,2470.648,13.28,0.003,270.0
2021-11-02T02:28:03,42.805,6.029,0.007,-0.004,-0.001,101.0,101.0,101.0,13.4,1505.2,327.0,-0.8,1.8,2470.63,13.28,0.008,119.7
2021-11-02T02:31:03,42.805,6.029,0.02,-0.002,0.013,101.0,101.0,102.0,13.4,1505.2,331.6,-0.7,1.8,2470.647,13.28,0.02,95.7
2021-11-02T02:34:03,42.805,6.029,-0.014,-0.006,-0.006,99.0,101.0,102.0,13.3,1505.2,326.3,-0.8,1.8,2470.641,13.28,0.015,246.8
2021-11-02T02:37:03,42.805,6.029,-0.007,0.003,-0.012,101.0,101.0,101.0,13.4,1505.2,330.5,-0.8,1.8,2470.616,13.28,0.007,293.2
2021-11-02T02:40:03,42.805,6.029,0.007,-0.009,-0.002,99.0,100.0,102.0,13.4,1505.2,326.8,-0.8,1.8,2470.643,13.28,0.011,142.1
2021-11-02T02:43:03,42.805,6.029,-0.015,0.0,0.002,101.0,101.0,101.0,13.3,1505.2,328.7,-0.8,1.8,2470.631,13.28,0.015,270.0
2021-11-02T02:46:03,42.805,6.029,-0.003,-0.007,0.001,101.0,102.0,100.0,13.4,1505.2,326.9,-0.8,1.8,2470.627,13.28,0.007,203.2
2021-11-02T02:49:03,42.805,6.029,0.018,-0.017,0.009,101.0,101.0,100.0,13.3,1505.2,330.1,-0.7,1.8,2470.625,13.28,0.024,133.4
2021-11-02T02:52:03,42.805,6.029,0.001,-0.02,-0.02,101.0,101.0,100.0,13.4,1505.2,327.4,-0.7,1.8,2470.605,13.28,0.02,177.1
2021-11-02T02:55:03,42.805,6.029,-0.006,0.0,-0.01,101.0,101.0,101.0,13.4,1505.2,329.3,-0.8,1.8,2470.673,13.28,0.006,270.0
2021-11-02T02:58:03,42.805,6.029,0.008,0.001,0.006,101.0,105.0,101.0,13.4,1505.2,325.8,-0.8,1.8,2470.651,13.29,0.008,82.9
2021-11-02T03:04:03,42.805,6.029,-0.004,-0.014,0.0,101.0,100.0,100.0,13.4,1505.2,328.4,-0.8,1.8,2470.697,13.28,0.014,195.9
2021-11-02T03:07:03,42.805,6.029,0.005,-0.003,0.006,102.0,100.0,101.0,13.4,1505.2,328.4,-0.7,1.8,2470.735,13.28,0.005,121.0
2021-11-02T03:10:03,42.805,6.029,0.0,-0.01,0.008,101.0,101.0,100.0,13.4,1505.2,330.0,-0.7,1.8,2470.694,13.28,0.01,180.0
2021-11-02T03:13:03,42.805,6.029,0.006,-0.015,-0.007,101.0,100.0,101.0,13.3,1505.2,330.1,-0.8,1.8,2470.658,13.28,0.016,158.2
2021-11-02T03:16:03,42.805,6.029,-0.007,-0.015,-0.028,100.0,101.0,101.0,13.3,1505.2,329.8,-0.8,1.8,2470.717,13.28,0.016,205.0
2021-11-02T03:19:03,42.805,6.029,0.0,0.001,0.0,103.0,101.0,101.0,13.3,1505.2,329.8,-0.8,1.8,2470.671,13.28,0.001,0.0
2021-11-02T03:22:03,42.805,6.029,-0.042,0.006,-0.012,102.0,101.0,100.0,13.4,1505.2,326.2,-0.8,1.8,2470.684,13.29,0.042,278.1
2021-11-02T03:25:03,42.805,6.029,0.001,0.004,0.018,101.0,100.0,101.0,13.4,1505.2,329.1,-0.8,1.8,2470.661,13.29,0.004,14.0
2021-11-02T03:28:03,42.805,6.029,-0.004,-0.001,0.037,102.0,100.0,100.0,13.4,1505.2,325.7,-0.8,1.8,2470.658,13.29,0.004,256.0
2021-11-02T03:31:03,42.805,6.029,-0.013,0.012,0.011,102.0,101.0,100.0,13.4,1505.2,326.9,-0.8,1.8,2470.665,13.29,0.017,312.7
2021-11-02T03:34:03,42.805,6.029,0.008,-0.023,0.001,101.0,101.0,101.0,13.4,1505.2,328.3,-0.7,1.8,2470.648,13.29,0.024,160.8
2021-11-02T03:37:03,42.805,6.029,-0.008,0.013,0.027,100.0,101.0,101.0,13.4,1505.2,331.1,-0.8,1.8,2470.641,13.29,0.015,328.4
2021-11-02T03:40:03,42.805,6.029,-0.005,0.018,-0.002,101.0,101.0,101.0,13.4,1505.2,330.4,-0.7,1.9,2470.667,13.29,0.018,344.5
2021-11-02T03:43:03,42.805,6.029,0.009,-0.011,-0.01,103.0,100.0,100.0,13.4,1505.2,331.3,-0.7,1.8,2470.705,13.29,0.014,140.7
2021-11-02T03:46:03,42.805,6.029,-0.001,-0.002,0.014,102.0,102.0,99.0,13.3,1505.2,328.7,-0.7,1.8,2470.649,13.29,0.002,206.6
2021-11-02T03:49:03,42.805,6.029,0.0,-0.011,-0.011,100.0,101.0,101.0,13.4,1505.2,329.2,-0.7,1.8,2470.653,13.29,0.011,180.0
2021-11-02T03:52:03,42.805,6.029,-0.001,-0.022,-0.02,101.0,100.0,101.0,13.3,1505.2,328.9,-0.8,1.8,2470.649,13.29,0.022,182.6
2021-11-02T03:55:03,42.805,6.029,-0.015,0.002,-0.005,101.0,102.0,101.0,13.4,1505.2,329.0,-0.7,1.8,2470.641,13.29,0.015,277.6
2021-11-02T03:58:03,42.805,6.029,-0.005,0.007,-0.006,100.0,101.0,103.0,13.4,1505.2,329.7,-0.7,1.8,2470.697,13.29,0.008,324.5
2021-11-02T04:04:03,42.805,6.029,-0.01,0.003,0.001,101.0,102.0,101.0,13.4,1505.2,327.2,-0.8,1.8,2470.708,13.28,0.01,286.7
2021-11-02T04:07:03,42.805,6.029,0.006,-0.001,-0.006,100.0,101.0,101.0,13.4,1505.2,330.0,-0.7,1.8,2470.747,13.28,0.006,99.5
2021-11-02T04:10:03,42.805,6.029,0.011,-0.008,-0.023,101.0,100.0,101.0,13.3,1505.2,329.7,-0.8,1.8,2470.708,13.28,0.013,126.0
2021-11-02T04:13:03,42.805,6.029,-0.019,0.007,0.015,102.0,100.0,100.0,13.4,1505.2,329.5,-0.8,1.8,2470.732,13.28,0.02,290.2
2021-11-02T04:16:03,42.805,6.029,-0.011,-0.008,-0.009,100.0,102.0,100.0,13.4,1505.2,325.3,-0.7,1.8,2470.751,13.28,0.013,234.0
2021-11-02T04:19:03,42.805,6.029,0.004,0.012,0.009,100.0,99.0,102.0,13.3,1505.2,325.7,-0.7,1.8,2470.702,13.28,0.012,18.4
2021-11-02T04:22:03,42.805,6.029,-0.019,-0.003,-0.016,100.0,101.0,102.0,13.3,1505.2,327.3,-0.8,1.8,2470.706,13.28,0.019,261.0
2021-11-02T04:25:03,42.805,6.029,-0.004,-0.013,0.02,101.0,101.0,101.0,13.4,1505.2,330.6,-0.8,1.8,2470.722,13.28,0.013,197.1
2021-11-02T04:28:03,42.805,6.029,-0.001,-0.007,-0.017,101.0,102.0,100.0,13.4,1505.2,325.8,-0.8,1.9,2470.719,13.28,0.007,188.1
2021-11-02T04:31:03,42.805,6.029,0.004,0.001,0.013,99.0,101.0,101.0,13.4,1505.2,331.0,-0.8,1.8,2470.713,13.29,0.004,76.0
2021-11-02T04:34:03,42.805,6.029,0.0,-0.014,-0.012,101.0,102.0,99.0,13.3,1505.2,328.9,-0.7,1.8,2470.737,13.29,0.014,180.0
2021-11-02T04:37:03,42.805,6.029,-0.01,0.003,0.0,100.0,101.0,102.0,13.3,1505.2,331.5,-0.7,1.8,2470.712,13.29,0.01,286.7
2021-11-02T04:40:03,42.805,6.029,0.023,0.0,0.035,100.0,101.0,102.0,13.3,1505.2,329.2,-0.8,1.8,2470.699,13.29,0.023,90.0
2021-11-02T04:43:03,42.805,6.029,0.021,-0.006,0.015,102.0,101.0,101.0,13.4,1505.2,330.1,-0.7,1.8,2470.719,13.29,0.021,105.9
2021-11-02T04:46:03,42.805,6.029,0.015,-0.006,-0.001,101.0,101.0,101.0,13.3,1505.2,327.0,-0.8,1.8,2470.744,13.29,0.016,111.8
2021-11-02T04:49:03,42.805,6.029,-0.001,0.012,-0.004,101.0,101.0,100.0,13.4,1505.2,331.0,-0.7,1.8,2470.705,13.29,0.012,355.2
2021-11-02T04:52:03,42.805,6.029,0.004,-0.013,0.012,101.0,99.0,100.0,13.4,1505.2,325.9,-0.8,1.8,2470.741,13.29,0.013,162.9
2021-11-02T04:55:03,42.805,6.029,-0.015,0.0,0.002,102.0,101.0,101.0,13.3,1505.2,328.7,-0.7,1.8,2470.74,13.29,0.015,270.0
2021-11-02T04:58:03,42.805,6.029,0.007,-0.018,-0.018,100.0,100.0,101.0,13.4,1505.2,329.3,-0.7,1.8,2470.746,13.29,0.019,158.8
2021-11-02T05:04:03,42.805,6.029,0.002,-0.014,-0.025,101.0,101.0,101.0,13.4,1505.2,328.0,-0.7,1.8,2470.73,13.28,0.014,171.9
2021-11-02T05:07:03,42.805,6.029,0.012,0.017,0.059,101.0,102.0,100.0,13.4,1505.2,329.6,-0.8,1.8,2470.785,13.28,0.02,35.2
2021-11-02T05:10:03,42.805,6.029,0.019,-0.012,-0.012,101.0,101.0,100.0,13.4,1505.2,329.4,-0.7,1.8,2470.782,13.29,0.022,122.3
2021-11-02T05:13:03,42.805,6.029,0.004,-0.01,-0.008,101.0,102.0,101.0,13.4,1505.2,328.3,-0.7,1.8,2470.738,13.29,0.01,158.2
2021-11-02T05:16:03,42.805,6.029,-0.012,-0.013,-0.031,101.0,100.0,100.0,13.4,1505.2,330.8,-0.7,1.8,2470.715,13.29,0.017,222.7
2021-11-02T05:19:03,42.805,6.029,0.008,0.003,0.02,101.0,101.0,101.0,13.4,1505.2,327.2,-0.8,1.8,2470.731,13.29,0.008,69.4
2021-11-02T05:22:03,42.805,6.029,-0.001,-0.01,0.013,101.0,102.0,100.0,13.3,1505.2,327.1,-0.7,1.8,2470.728,13.29,0.01,185.7
2021-11-02T05:25:03,42.805,6.029,-0.002,0.004,0.008,100.0,101.0,100.0,13.4,1505.2,331.2,-0.8,1.8,2470.726,13.29,0.004,333.4
2021-11-02T05:28:03,42.805,6.029,0.0,-0.027,-0.018,102.0,98.0,101.0,13.4,1505.2,331.8,-0.8,1.8,2470.713,13.29,0.026,180.0
2021-11-02T05:31:03,42.805,6.029,-0.013,0.0,0.019,99.0,100.0,101.0,13.3,1505.2,331.0,-0.7,1.8,2470.711,13.29,0.013,270.0
2021-11-02T05:34:03,42.805,6.029,0.002,-0.017,-0.023,101.0,101.0,100.0,13.4,1505.2,326.9,-0.7,1.8,2470.725,13.29,0.017,173.3
2021-11-02T05:37:03,42.805,6.029,0.007,-0.011,0.008,101.0,100.0,100.0,13.4,1505.2,327.3,-0.8,1.8,2470.722,13.29,0.013,147.5
2021-11-02T05:40:03,42.805,6.029,0.006,0.007,-0.02,101.0,100.0,101.0,13.4,1505.2,329.4,-0.8,1.8,2470.72,13.29,0.009,40.6
2021-11-02T05:43:03,42.805,6.029,0.022,-0.006,-0.002,100.0,101.0,101.0,13.4,1505.2,328.5,-0.8,1.8,2470.756,13.29,0.022,105.3
2021-11-02T05:46:03,42.805,6.029,-0.017,-0.007,-0.008,101.0,99.0,101.0,13.4,1505.2,327.1,-0.8,1.8,2470.712,13.29,0.018,247.6
2021-11-02T05:49:03,42.805,6.029,0.007,-0.004,0.007,102.0,101.0,101.0,13.3,1505.2,331.4,-0.8,1.8,2470.717,13.29,0.008,119.7
2021-11-02T05:52:03,42.805,6.029,-0.009,0.003,0.032,101.0,100.0,100.0,13.4,1505.2,326.5,-0.8,1.8,2470.731,13.29,0.009,288.4
2021-11-02T05:55:03,42.805,6.029,0.002,-0.005,0.034,101.0,101.0,100.0,13.4,1505.2,329.1,-0.7,1.8,2470.712,13.29,0.005,158.2
2021-11-02T05:58:03,42.805,6.029,-0.018,0.003,-0.003,100.0,100.0,101.0,13.4,1505.2,327.8,-0.8,1.8,2470.709,13.29,0.018,279.5
2021-11-02T06:04:03,42.805,6.029,-0.012,0.008,0.003,101.0,101.0,100.0,13.4,1505.2,330.8,-0.8,1.8,2470.744,13.29,0.014,303.7
2021-11-02T06:07:03,42.805,6.029,-0.007,-0.009,-0.014,102.0,100.0,101.0,13.3,1505.2,330.1,-0.7,1.8,2470.732,13.29,0.011,217.9
2021-11-02T06:10:03,42.805,6.029,-0.032,-0.004,-0.016,99.0,100.0,101.0,13.4,1505.2,327.5,-0.8,1.8,2470.729,13.29,0.032,262.9
2021-11-02T06:13:03,42.805,6.029,0.022,0.003,0.045,101.0,102.0,100.0,13.4,1505.2,330.2,-0.7,1.8,2470.781,13.29,0.022,82.2
2021-11-02T06:16:03,42.805,6.029,-0.001,0.01,0.017,101.0,102.0,100.0,13.4,1505.2,327.2,-0.7,1.8,2470.738,13.29,0.01,354.3
2021-11-02T06:19:03,42.805,6.029,-0.015,0.015,0.026,101.0,99.0,100.0,13.4,1505.2,326.8,-0.8,1.8,2470.708,13.29,0.021,315.0
2021-11-02T06:22:03,42.805,6.029,-0.019,0.011,0.014,100.0,100.0,101.0,13.4,1505.2,328.1,-0.8,1.8,2470.706,13.29,0.021,300.1
2021-11-02T06:25:03,42.805,6.029,-0.009,-0.013,0.005,100.0,100.0,101.0,13.4,1505.2,331.3,-0.8,1.9,2470.72,13.29,0.015,214.7
2021-11-02T06:28:03,42.805,6.029,0.018,-0.023,-0.006,102.0,100.0,100.0,13.3,1505.2,329.0,-0.7,1.8,2470.733,13.29,0.029,142.0
2021-11-02T06:31:03,42.805,6.029,-0.021,0.0,0.028,100.0,99.0,101.0,13.4,1505.2,325.8,-0.8,1.8,2470.694,13.29,0.021,270.0
2021-11-02T06:34:03,42.805,6.029,0.006,-0.021,-0.009,100.0,100.0,101.0,13.4,1505.2,329.1,-0.7,1.8,2470.704,13.29,0.021,164.1
2021-11-02T06:37:03,42.805,6.029,-0.022,0.007,0.019,101.0,100.0,100.0,13.4,1505.2,327.0,-0.8,1.9,2470.68,13.29,0.023,287.6
2021-11-02T06:40:03,42.805,6.029,-0.021,0.005,-0.008,103.0,100.0,100.0,13.3,1505.2,329.6,-0.8,1.8,2470.749,13.29,0.021,283.4
2021-11-02T06:43:03,42.805,6.029,-0.01,-0.001,-0.02,101.0,102.0,100.0,13.4,1505.2,327.1,-0.8,1.8,2470.703,13.29,0.01,264.3
2021-11-02T06:46:03,42.805,6.029,0.014,0.0,0.018,100.0,102.0,101.0,13.3,1505.2,330.6,-0.7,1.8,2470.689,13.29,0.014,90.0
2021-11-02T06:49:03,42.805,6.029,-0.015,0.016,0.034,101.0,101.0,100.0,13.3,1505.2,325.0,-0.8,1.8,2470.702,13.29,0.021,316.9
2021-11-02T06:52:03,42.805,6.029,0.0,0.0,0.024,101.0,100.0,101.0,13.4,1505.2,327.3,-0.8,1.9,2470.697,13.29,0.0,0.0
2021-11-02T06:55:03,42.805,6.029,-0.013,0.006,0.006,102.0,100.0,102.0,13.4,1505.2,331.9,-0.8,1.8,2470.688,13.29,0.014,294.8
2021-11-02T06:58:03,42.805,6.029,-0.005,-0.005,-0.006,101.0,99.0,103.0,13.3,1505.2,331.4,-0.7,1.8,2470.706,13.29,0.007,225.0
2021-11-02T07:04:03,42.805,6.029,-0.026,-0.01,0.002,101.0,100.0,100.0,13.4,1505.2,327.2,-0.8,1.8,2470.723,13.29,0.027,249.0
2021-11-02T07:07:03,42.805,6.029,-0.017,-0.001,-0.017,100.0,100.0,100.0,13.4,1505.2,329.0,-0.8,1.9,2470.705,13.29,0.017,266.6
2021-11-02T07:10:03,42.805,6.029,-0.008,-0.005,-0.009,104.0,101.0,101.0,13.4,1505.2,329.2,-0.7,1.8,2470.718,13.29,0.009,238.0
2021-11-02T07:13:03,42.805,6.029,-0.015,0.001,-0.003,101.0,101.0,100.0,13.3,1505.2,326.8,-0.8,1.8,2470.692,13.29,0.015,273.8
2021-11-02T07:16:03,42.805,6.029,-0.015,0.003,-0.015,101.0,102.0,100.0,13.4,1505.2,331.4,-0.8,1.8,2470.734,13.29,0.015,281.3
2021-11-02T07:19:03,42.805,6.029,0.0,0.007,0.03,101.0,100.0,101.0,13.3,1505.2,326.9,-0.8,1.8,2470.703,13.29,0.007,0.0
2021-11-02T07:22:03,42.805,6.029,0.0,-0.007,-0.012,102.0,101.0,100.0,13.4,1505.2,326.3,-0.7,1.8,2470.683,13.29,0.007,180.0
2021-11-02T07:25:03,42.805,6.029,0.01,0.006,0.017,100.0,100.0,101.0,13.3,1505.2,327.5,-0.8,1.8,2470.693,13.29,0.011,59.0
2021-11-02T07:28:03,42.805,6.029,-0.005,-0.007,-0.012,101.0,101.0,100.0,13.4,1505.2,325.5,-0.8,1.8,2470.685,13.29,0.008,215.5
2021-11-02T07:31:03,42.805,6.029,-0.038,0.004,-0.003,101.0,99.0,101.0,13.4,1505.2,329.0,-0.7,1.8,2470.668,13.29,0.038,276.0
2021-11-02T07:34:03,42.805,6.029,0.005,-0.007,-0.031,101.0,103.0,100.0,13.3,1505.2,327.4,-0.8,1.8,2470.687,13.29,0.008,144.5
2021-11-02T07:37:03,42.805,6.029,-0.01,0.0,0.004,102.0,100.0,100.0,13.3,1505.2,331.7,-0.8,1.8,2470.716,13.29,0.01,270.0
2021-11-02T07:40:03,42.805,6.029,-0.032,0.005,-0.015,101.0,100.0,100.0,13.4,1505.2,331.6,-0.8,1.8,2470.661,13.29,0.032,278.9
2021-11-02T07:43:03,42.805,6.029,0.011,0.004,0.01,100.0,101.0,101.0,13.4,1505.2,329.3,-0.8,1.8,2470.68,13.29,0.011,70.0
2021-11-02T07:46:03,42.805,6.029,0.002,-0.01,-0.025,103.0,99.0,101.0,13.4,1505.2,328.3,-0.8,1.8,2470.674,13.29,0.01,168.7
2021-11-02T07:49:03,42.805,6.029,-0.014,-0.011,-0.007,102.0,100.0,100.0,13.3,1505.2,330.8,-0.8,1.8,2470.656,13.29,0.017,231.8
2021-11-02T07:52:03,42.805,6.029,-0.025,0.007,0.032,100.0,99.0,101.0,13.4,1505.2,326.0,-0.7,1.8,2470.612,13.29,0.025,285.6
2021-11-02T07:55:03,42.805,6.029,-0.012,0.004,0.006,101.0,100.0,101.0,13.3,1505.2,325.3,-0.8,1.8,2470.658,13.29,0.012,288.4
2021-11-02T07:58:03,42.805,6.029,-0.015,0.001,-0.021,101.0,102.0,100.0,13.3,1505.2,330.3,-0.8,1.8,2470.676,13.29,0.015,273.8
2021-11-02T08:04:03,42.805,6.029,0.012,0.005,0.028,102.0,100.0,101.0,13.4,1505.2,331.2,-0.8,1.8,2470.69,13.29,0.013,67.4
2021-11-02T08:07:03,42.805,6.029,0.005,-0.005,0.006,101.0,99.0,101.0,13.3,1505.2,328.9,-0.8,1.8,2470.719,13.29,0.007,135.0
2021-11-02T08:10:03,42.805,6.029,-0.029,0.023,0.014,101.0,101.0,100.0,13.4,1505.2,330.6,-0.8,1.8,2470.7,13.29,0.037,308.4
2021-11-02T08:13:03,42.805,6.029,-0.001,0.013,0.039,100.0,100.0,101.0,13.3,1505.2,327.2,-0.8,1.8,2470.719,13.29,0.013,355.6
2021-11-02T08:16:03,42.805,6.029,-0.035,0.043,0.056,101.0,100.0,101.0,13.4,1505.2,325.3,-0.7,1.8,2470.69,13.29,0.055,320.9
2021-11-02T08:19:03,42.805,6.029,-0.019,0.007,0.037,100.0,100.0,101.0,13.4,1505.2,329.6,-0.7,1.8,2470.7,13.29,0.02,290.2
2021-11-02T08:22:03,42.805,6.029,0.011,0.014,-0.016,101.0,99.0,102.0,13.3,1505.2,328.1,-0.8,1.8,2470.655,13.29,0.017,38.2
2021-11-02T08:25:03,42.805,6.029,0.0,0.014,0.009,101.0,100.0,101.0,13.4,1505.2,329.5,-0.7,1.8,2470.658,13.29,0.014,0.0
2021-11-02T08:28:03,42.805,6.029,-0.004,-0.002,0.0,100.0,100.0,101.0,13.4,1505.2,327.2,-0.8,1.8,2470.67,13.29,0.004,243.4
2021-11-02T08:31:03,42.805,6.029,0.012,0.006,0.03,101.0,101.0,100.0,13.3,1505.2,325.1,-0.8,1.8,2470.658,13.29,0.013,63.4
2021-11-02T08:34:03,42.805,6.029,-0.012,0.012,0.012,101.0,101.0,101.0,13.4,1505.2,327.7,-0.8,1.8,2470.684,13.29,0.016,315.0
2021-11-02T08:37:03,42.805,6.029,-0.012,0.011,0.0,99.0,101.0,101.0,13.3,1505.2,329.0,-0.8,1.8,2470.705,13.29,0.016,312.5
2021-11-02T08:40:03,42.805,6.029,0.011,-0.007,0.009,99.0,102.0,100.0,13.3,1505.2,329.7,-0.7,1.8,2470.66,13.29,0.013,122.5
2021-11-02T08:43:03,42.805,6.029,-0.009,-0.011,0.001,101.0,100.0,100.0,13.4,1505.2,330.2,-0.7,1.8,2470.661,13.29,0.014,219.3
2021-11-02T08:46:03,42.805,6.029,-0.017,0.002,-0.016,99.0,100.0,101.0,13.4,1505.2,327.7,-0.8,1.8,2470.606,13.29,0.017,276.7
2021-11-02T08:49:03,42.805,6.029,0.002,0.003,0.014,100.0,99.0,102.0,13.4,1505.2,325.0,-0.7,1.8,2470.655,13.29,0.003,33.7
2021-11-02T08:52:03,42.805,6.029,0.003,-0.015,-0.01,103.0,99.0,101.0,13.4,1505.2,325.0,-0.8,1.8,2470.643,13.29,0.015,168.7
2021-11-02T08:55:03,42.805,6.029,-0.011,0.009,0.007,100.0,101.0,102.0,13.4,1505.2,327.2,-0.7,1.8,2470.632,13.29,0.014,309.3
2021-11-02T08:58:03,42.805,6.029,0.01,0.005,-0.007,100.0,100.0,101.0,13.4,1505.2,330.9,-0.8,1.8,2470.634,13.29,0.011,63.4
2021-11-02T09:04:03,42.805,6.029,-0.012,0.009,0.015,101.0,101.0,101.0,13.4,1505.2,330.8,-0.8,1.8,2470.664,13.28,0.015,306.9
2021-11-02T09:07:03,42.805,6.029,-0.003,0.015,0.002,101.0,101.0,100.0,13.4,1505.2,328.7,-0.8,1.9,2470.668,13.29,0.015,348.7
2021-11-02T09:10:03,42.805,6.029,-0.01,0.001,-0.013,101.0,102.0,101.0,13.3,1505.2,330.3,-0.7,1.8,2470.693,13.29,0.01,275.7
2021-11-02T09:13:03,42.805,6.029,-0.015,0.013,0.017,101.0,100.0,101.0,13.3,1505.2,325.4,-0.8,1.8,2470.65,13.29,0.019,310.9
2021-11-02T09:16:03,42.805,6.029,0.016,0.014,0.023,101.0,101.0,100.0,13.4,1505.2,331.6,-0.7,1.8,2470.67,13.29,0.021,48.8
2021-11-02T09:19:03,42.805,6.029,0.001,-0.01,-0.005,100.0,101.0,101.0,13.4,1505.2,325.7,-0.8,1.8,2470.648,13.29,0.01,174.3
2021-11-02T09:22:03,42.805,6.029,-0.008,0.037,0.066,101.0,100.0,100.0,13.4,1505.2,327.1,-0.7,1.8,2470.616,13.29,0.037,347.8
2021-11-02T09:25:03,42.805,6.029,0.004,0.006,0.021,101.0,101.0,100.0,13.4,1505.2,331.5,-0.7,1.8,2470.663,13.29,0.007,33.7
2021-11-02T09:28:03,42.805,6.029,-0.01,0.019,0.014,101.0,101.0,100.0,13.3,1505.2,330.4,-0.8,1.8,2470.634,13.29,0.021,332.2
2021-11-02T09:31:03,42.805,6.029,-0.014,0.009,-0.003,100.0,101.0,101.0,13.4,1505.2,331.1,-0.7,1.8,2470.62,13.29,0.016,302.7
2021-11-02T09:34:03,42.805,6.029,-0.001,0.001,-0.012,102.0,101.0,101.0,13.4,1505.2,327.8,-0.7,1.8,2470.637,13.29,0.001,315.0
2021-11-02T09:37:03,42.805,6.029,-0.004,0.012,0.024,100.0,102.0,101.0,13.3,1505.2,329.6,-0.8,1.8,2470.669,13.29,0.012,341.6
2021-11-02T09:40:03,42.805,6.029,-0.012,0.007,0.018,100.0,102.0,100.0,13.4,1505.2,327.4,-0.7,1.8,2470.624,13.29,0.013,300.3
2021-11-02T09:43:03,42.805,6.029,-0.011,0.017,0.003,101.0,103.0,101.0,13.3,1505.2,326.6,-0.7,1.8,2470.631,13.29,0.02,327.1
2021-11-02T09:46:03,42.805,6.029,0.006,-0.014,-0.014,101.0,101.0,101.0,13.4,1505.2,327.7,-0.8,1.8,2470.61,13.29,0.015,156.8
2021-11-02T09:49:03,42.805,6.029,-0.005,-0.011,-0.01,100.0,101.0,101.0,13.4,1505.2,327.4,-0.8,1.9,2470.621,13.29,0.012,204.4
2021-11-02T09:52:03,42.805,6.029,0.009,0.002,0.008,100.0,101.0,102.0,13.4,1505.2,329.1,-0.8,1.8,2470.637,13.29,0.009,77.5
2021-11-02T09:55:03,42.805,6.029,-0.013,0.004,0.0,99.0,102.0,102.0,13.4,1505.2,329.2,-0.8,1.8,2470.587,13.29,0.013,287.1
2021-11-02T09:58:03,42.805,6.029,-0.008,0.02,-0.014,101.0,100.0,102.0,13.4,1505.2,325.1,-0.8,1.8,2470.592,13.29,0.021,338.2